SM7GXQ Weather Reports


time (UTC)temp
C
wind
direction
speed
KPH
gust
KPH
rain 1hr
cm
rain 24hr
cm
rain mn
cm
humidity
%
barometer
mb
20260904234504 14 268 4.8 14.5 0.00 0.71 0.00 90 995.5
20260904231504 15 280 6.4 14.5 0.00 0.71 0.00 91 995.5
20260904230004 15 281 8.0 12.9 0.00 0.71 0.00 91 995.7
20260904223004 15 293 4.8 9.7 0.00 0.71 0.00 92 995.5
20260904221505 15 277 3.2 9.7 0.00 0.71 0.00 93 995.1
20260904220004 15 279 6.4 11.3 0.00 0.71 0.00 93 995.1
20260904214505 15 269 4.8 9.7 0.00 0.71 0.71 93 995.1
20260904210004 15 232 1.6 8.0 0.00 0.79 0.71 93 995.0
20260904204504 15 259 3.2 9.7 0.00 0.89 0.71 93 995.1
20260904203005 15 207 1.6 12.9 0.00 0.94 0.71 93 995.2
20260904184504 15 236 3.2 9.7 0.03 0.97 0.71 93 995.6
20260904181503 15 220 4.8 16.1 0.00 1.57 0.69 93 995.6
20260904180004 15 230 4.8 12.9 0.05 1.57 0.69 93 995.6
20260904174504 15 195 4.8 19.3 0.13 1.57 0.69 94 995.6
20260904170004 15 212 1.6 12.9 0.18 1.55 0.64 93 996.0
20260904164505 15 224 3.2 12.9 0.13 1.47 0.56 93 996.0
20260904163004 15 213 4.8 11.3 0.08 1.45 0.51 93 996.5
20260904161504 15 202 4.8 11.3 0.13 1.45 0.51 93 996.5
20260904160005 15 170 3.2 11.3 0.13 1.40 0.46 93 996.5
20260904150004 15 211 4.8 19.3 0.15 1.27 0.33 92 997.1
20260904143005 15 182 1.6 8.0 0.10 1.19 0.25 91 997.7
20260904130004 15 209 6.4 19.3 0.05 1.09 0.13 87 999.0
20260904121504 16 241 4.8 20.9 0.00 1.02 0.05 82 999.2
20260904113005 17 161 3.2 19.3 0.00 1.02 0.05 78 999.7
20260904101504 17 214 4.8 19.3 0.00 1.02 0.05 78 1000.1
20260904100005 17 225 4.8 19.3 0.00 1.02 0.05 78 1000.3
20260904091504 17 249 6.4 14.5 0.00 1.02 0.05 81 1000.6
20260904090005 17 219 3.2 14.5 0.00 1.02 0.05 80 1000.6
20260904083005 17 274 4.8 12.9 0.00 1.02 0.05 82 1000.6
20260904081504 16 251 4.8 19.3 0.00 1.02 0.05 83 1000.7
20260904080004 16 243 3.2 12.9 0.00 1.02 0.05 83 1001.1
20260904073005 16 271 9.7 24.1 0.00 1.02 0.05 84 1001.1
20260904064504 15 248 8.0 14.5 0.00 1.02 0.05 87 1001.1
20260904061504 15 245 4.8 20.9 0.00 1.02 0.05 88 1001.1
20260904060004 15 334 3.2 19.3 0.00 1.02 0.05 89 1001.1
20260904041505 15 233 8.0 16.1 0.00 1.02 0.05 90 1001.1
20260904040005 15 225 4.8 19.3 0.00 1.02 0.05 90 1001.0
20260904034505 15 221 4.8 16.1 0.00 1.02 0.05 91 1001.1
20260904030004 16 248 4.8 12.9 0.00 1.02 0.05 91 1001.1
20260904023005 16 269 4.8 16.1 0.03 1.02 0.05 92 1001.4
20260904021504 16 268 6.4 14.5 0.03 1.02 0.05 92 1001.4
20260904020005 16 249 4.8 14.5 0.03 1.02 0.05 93 1001.0
20260904010004 16 279 4.8 12.9 0.05 0.99 0.05 93 1001.0
20260904001504 17 277 4.8 12.9 0.00 0.97 0.00 94 1000.9